Denton, TX

7:35 AM CDT on May 22, 2018 (GMT -0500)
Denton Municipal

Weather History for KDTO - August, 2013

Change the Weather History Date:

Saturday, August 3, 2013

  Actual Average Record
Temperature  
Mean Temperature 88 °F -  
Max Temperature 100 °F 95 °F 109 °F (2011)
Min Temperature 77 °F 71 °F 66 °F (1997)
Cooling Degree Days 23    
Growing Degree Days 38 (Base 50)    
Moisture  
Dew Point 64 °F    
Average Humidity 45    
Maximum Humidity 69    
Minimum Humidity 28    
Precipitation  
Precipitation 0.00 in - - ()
Sea Level Pressure  
Sea Level Pressure 29.93 in    
Wind  
Wind Speed 9 mph (SSE)    
Max Wind Speed 14 mph    
Max Gust Speed 20 mph    
Visibility 10 miles    
Events      
Averages and records for this station are not official NWS values.
T = Trace of Precipitation, MM = Missing Value Source: NWS Daily Summary

Daily Weather History Graph

Daily Weather History Graph

Search for Another Location

Airport or City:

Astronomy

Aug. 03, 2013 Rise Set
Actual Time 6:43 AM CDT 8:26 PM CDT
Civil Twilight 6:16 AM CDT 8:52 PM CDT
Nautical Twilight 5:44 AM CDT 9:25 PM CDT
Astronomical Twilight 5:09 AM CDT 9:59 PM CDT
Moon 3:55 AM CDT (8/3) 6:07 PM CDT (8/3)
Length of Visible Light 14h 36m
Length of Day
13h 42m
Waning Crescent, 9% of the Moon is Illuminated
Aug 3
Waning Crescent
Aug 6
New
Aug 14
First Quarter
Aug 20
Full
Aug 28
Last Quarter

Hourly Weather History & Observations

Time (CDT) Temp. Heat Index Dew Point Humidity Pressure Visibility Wind Dir Wind Speed Gust Speed Precip Events Conditions
12:53 AM 82.9 °F 84.4 °F 64.0 °F 53% 29.88 in 10.0 mi South 6.9 mph - N/A   Clear
1:53 AM 82.9 °F 84.4 °F 64.0 °F 53% 29.89 in 10.0 mi South 9.2 mph - N/A   Clear
2:53 AM 82.9 °F 84.6 °F 64.9 °F 54% 29.89 in 10.0 mi South 10.4 mph - N/A   Clear
3:53 AM 82.0 °F 83.8 °F 64.9 °F 56% 29.89 in 10.0 mi South 9.2 mph - N/A   Clear
4:53 AM 82.0 °F 84.1 °F 66.0 °F 58% 29.89 in 10.0 mi South 11.5 mph - N/A   Clear
5:53 AM 80.1 °F 82.1 °F 66.0 °F 62% 29.91 in 10.0 mi South 6.9 mph - N/A   Clear
6:53 AM 77.0 °F - 66.0 °F 69% 29.92 in 10.0 mi SSE 4.6 mph - N/A   Clear
7:53 AM 81.0 °F 83.3 °F 66.9 °F 62% 29.94 in 10.0 mi South 3.5 mph - N/A   Clear
8:53 AM 84.9 °F 87.6 °F 66.9 °F 55% 29.96 in 10.0 mi SSW 10.4 mph - N/A   Clear
9:53 AM 88.0 °F 90.7 °F 66.9 °F 49% 29.97 in 10.0 mi SSW 9.2 mph - N/A   Clear
10:53 AM 91.9 °F 94.5 °F 66.0 °F 42% 29.96 in 10.0 mi SSW 12.7 mph - N/A   Clear
11:53 AM 93.9 °F 96.1 °F 64.9 °F 38% 29.96 in 10.0 mi South 13.8 mph 19.6 mph N/A   Clear
12:53 PM 97.0 °F 99.9 °F 64.9 °F 35% 29.95 in 10.0 mi South 11.5 mph 18.4 mph N/A   Clear
1:53 PM 98.1 °F 101.2 °F 64.9 °F 34% 29.94 in 10.0 mi South 12.7 mph 18.4 mph N/A   Clear
2:53 PM 99.0 °F 101.7 °F 64.0 °F 32% 29.93 in 10.0 mi SSE 12.7 mph 18.4 mph N/A   Clear
3:53 PM 99.0 °F 100.5 °F 63.0 °F 30% 29.92 in 10.0 mi SE 10.4 mph 16.1 mph N/A   Clear
4:53 PM 99.0 °F 100.5 °F 62.1 °F 30% 29.91 in 10.0 mi SE 10.4 mph 18.4 mph N/A   Clear
5:53 PM 99.0 °F 99.5 °F 61.0 °F 28% 29.90 in 10.0 mi South 9.2 mph 19.6 mph N/A   Clear
6:53 PM 98.1 °F 99.1 °F 62.1 °F 30% 29.89 in 10.0 mi SSE 11.5 mph - N/A   Clear
7:53 PM 95.0 °F 95.6 °F 62.1 °F 33% 29.90 in 10.0 mi SSE 9.2 mph - N/A   Clear
8:53 PM 91.0 °F 90.9 °F 61.0 °F 36% 29.92 in 10.0 mi SE 6.9 mph - N/A   Clear
9:53 PM 86.0 °F 86.8 °F 63.0 °F 46% 29.95 in 10.0 mi South 5.8 mph - N/A   Clear
10:53 PM 84.9 °F 86.1 °F 64.0 °F 49% 29.98 in 10.0 mi SE 4.6 mph - N/A   Clear
11:53 PM 84.0 °F 84.9 °F 63.0 °F 49% 29.98 in 10.0 mi East 5.8 mph - N/A   Clear